STARLINK-34970

Last updated on Thu Oct 02 2025 00:02:05 GMT+0000 (Coordinated Universal Time)

1 65450U 25194S 25274.50002315 -.01974127 00000+0 -47223-1 0 9998 2 65450 97.6027 126.8915 0001826 79.8629 17.6632 15.44794116 4981

Satellite not in orbit

STARLINK-34970